Location: Baia de Cri?
(46.1667°N, 22.7167°E)
Time: 22:36:10
(UTC+00:00)

Timation 2 Rocket - Pass Details

Date: 15 January 2026
Orbit: 906 x 1072 km, 70.0° (Epoch: 11 February)

Event Time Altitude Azimuth Distance (km) Brightness Sun altitude
Rises 05:01:04 0° 223° (SW) 3,788 6.8 -11.3°
Reaches altitude 10° 05:03:47 10° 228° (SW) 2,818 6.1 -10.9°
Maximum altitude 05:10:12 53° 304° (NW) 1,214 4.2 -9.8°
Drops below altitude 10° 05:16:24 10° 21° (NNE) 2,718 6.3 -8.8°
Sets 05:18:59 0° 26° (NNE) 3,644 7.1 -8.4°
